Teterboro, NJ

6:41 PM EST on November 14, 2019 (GMT -0500)
Teterboro

Weather History for KTEB - September, 2019

Change the Weather History Date:

Thursday, September 26, 2019

  Actual Average Record
Temperature  
Mean Temperature 70 °F -  
Max Temperature 86 °F 71 °F 93 °F (2007)
Min Temperature 57 °F 51 °F 19 °F (2003)
Cooling Degree Days 4    
Growing Degree Days 20 (Base 50)    
Moisture  
Dew Point 58 °F    
Average Humidity 72    
Maximum Humidity 90    
Minimum Humidity 50    
Precipitation  
Precipitation 0.03 in - - ()
Sea Level Pressure  
Sea Level Pressure 29.82 in    
Wind  
Wind Speed 4 mph ()    
Max Wind Speed 16 mph    
Max Gust Speed 24 mph    
Visibility 9.9 miles    
Events Fog , Rain    
Averages and records for this station are not official NWS values.
T = Trace of Precipitation, MM = Missing Value Source: Averaged Metar Reports

Daily Weather History Graph

Daily Weather History Graph

Search for Another Location

Airport or City:

Astronomy

Sep. 26, 2019 Rise Set
Actual Time 6:47 AM EDT 6:47 PM EDT
Civil Twilight 6:20 AM EDT 7:14 PM EDT
Nautical Twilight 5:48 AM EDT 7:46 PM EDT
Astronomical Twilight 5:15 AM EDT 8:18 PM EDT
Moon 3:49 AM EDT (9/26) 5:59 PM EDT (9/26)
Length of Visible Light 12h 54m
Length of Day
11h 59m
Waning Crescent, 7% of the Moon is Illuminated
Sep 26
Waning Crescent
Sep 28
New
Oct 5
First Quarter
Oct 13
Full
Oct 21
Last Quarter

Hourly Weather History & Observations

Time (EDT) Temp. Heat Index Dew Point Humidity Pressure Visibility Wind Dir Wind Speed Gust Speed Precip Events Conditions
12:51 AM 62.1 °F - 55.9 °F 80% 29.85 in 10.0 mi Calm Calm - N/A   Clear
1:51 AM 62.1 °F - 54.0 °F 75% 29.85 in 10.0 mi Calm Calm - N/A   Clear
2:51 AM 62.1 °F - 51.1 °F 67% 29.84 in 10.0 mi Calm Calm - N/A   Clear
3:51 AM 62.1 °F - 52.0 °F 70% 29.83 in 10.0 mi Calm Calm - N/A   Clear
4:51 AM 61.0 °F - 53.1 °F 75% 29.83 in 10.0 mi Calm Calm - N/A   Clear
5:51 AM 57.9 °F - 53.1 °F 84% 29.82 in 10.0 mi Calm Calm - N/A   Clear
6:51 AM 60.1 °F - 54.0 °F 80% 29.83 in 10.0 mi Calm Calm - N/A   Clear
7:51 AM 63.0 °F - 55.9 °F 78% 29.82 in 10.0 mi SSW 3.5 mph - N/A   Clear
8:51 AM 68.0 °F - 57.0 °F 68% 29.82 in 10.0 mi South 6.9 mph - N/A   Clear
9:51 AM 71.1 °F - 59.0 °F 66% 29.83 in 10.0 mi South 12.7 mph - N/A   Partly Cloudy
10:51 AM 75.0 °F - 61.0 °F 62% 29.79 in 10.0 mi South 11.5 mph - N/A   Clear
11:51 AM 79.0 °F - 62.1 °F 56% 29.76 in 10.0 mi South 13.8 mph - N/A   Partly Cloudy
12:51 PM 82.9 °F 84.4 °F 64.0 °F 53% 29.74 in 9.0 mi South 12.7 mph 19.6 mph N/A   Partly Cloudy
1:51 PM 82.0 °F 83.4 °F 64.0 °F 54% 29.73 in 10.0 mi South 11.5 mph - N/A   Scattered Clouds
2:51 PM 80.1 °F 80.9 °F 60.1 °F 50% 29.73 in 10.0 mi NW 11.5 mph 20.7 mph N/A   Overcast
2:58 PM 79.0 °F - 59.0 °F 50% 29.72 in 10.0 mi WNW 13.8 mph 21.9 mph 0.00 in Rain Light Rain
3:51 PM 73.9 °F - 57.9 °F 57% 29.74 in 10.0 mi NW 16.1 mph 24.2 mph 0.00 in   Overcast
4:51 PM 66.9 °F - 62.1 °F 84% 29.79 in 9.0 mi North 10.4 mph - 0.01 in Rain Light Rain
5:51 PM 66.9 °F - 61.0 °F 81% 29.78 in 10.0 mi NNW 8.1 mph - 0.02 in   Overcast
6:51 PM 66.0 °F - 60.1 °F 81% 29.81 in 10.0 mi North 4.6 mph - N/A   Mostly Cloudy
7:51 PM 64.0 °F - 59.0 °F 84% 29.85 in 10.0 mi Calm Calm - N/A   Clear
8:51 PM 64.9 °F - 59.0 °F 81% 29.89 in 10.0 mi Calm Calm - N/A   Clear
9:51 PM 63.0 °F - 57.9 °F 84% 29.91 in 10.0 mi Calm Calm - N/A Fog Shallow Fog
10:51 PM 62.1 °F - 57.9 °F 86% 29.94 in 10.0 mi Calm Calm - N/A Fog Shallow Fog
11:51 PM 59.0 °F - 55.9 °F 90% 29.96 in 10.0 mi West 4.6 mph - N/A Fog Shallow Fog